User: anonymous   Login
Location: Unspecified
(0.0000°N, 0.0000°E)
Time: 11:57:20
(UTC+00:00)
Language:

CORIOLIS - Orbit

View from above orbital plane
View from above orbital plane
View from above satellite
View from above satellite

Ground track
Ground track

The orbit data is extracted from the following two-line orbital elements,

1 27640U 03001A   17294.94737784 +.00000010 +00000-0 +26066-4 0  9990
2 27640 098.7429 303.4519 0013223 306.0514 111.0705 14.18957820765946
Epoch (UTC): 21 October 2017 22:44:13
Eccentricity: 0.0013223
inclination: 98.7429°
perigee height: 819 km
apogee height: 838 km
right ascension of ascending node: 303.4519°
argument of perigee: 306.0514°
revolutions per day: 14.18957820
mean anomaly at epoch: 111.0705°
orbit number at epoch: 76594

The dashed part of the orbit path shows where the satellite is in the earth's shadow,  

DLR